ABY738 OMSJ-HAAB

Flight info

Callsign ABY738
Flight time N/A
Altitude 35000
Route ANVIX R401 GIDIS G783 UKRAG L710 KUKDI/N0449F340 B400 RIGAM B404 DEMGO UB404 ESTIK/N0454F360 UB404 HARGA/N0451F350 UW885 ARSHI ARSHI1A
Aircraft A320/M-SDE3FGHIRWY/LB1

Departure

Time 2026-04-20 18:25
Airport Sharjah International Airport (OMSJ)

Arrival

Time N/A
Airport Addis Ababa Bole International Airport (HAAB)
Time Latitude Longitude Altitude Speed Heading
2026-04-20 17:43 25.32539 55.51765 126 ft 0 kts 121°
2026-04-20 18:15 25.32540 55.51763 126 ft 1 kts 121°
2026-04-20 18:15 25.32548 55.51747 126 ft 3 kts 113°
2026-04-20 18:15 25.32555 55.51726 126 ft 3 kts 94°
2026-04-20 18:16 25.32553 55.51706 126 ft 3 kts 55°
2026-04-20 18:16 25.32541 55.51694 126 ft 2 kts 32°
2026-04-20 18:16 25.32531 55.51687 126 ft 2 kts 32°
2026-04-20 18:18 25.32535 55.51690 125 ft 3 kts 32°
2026-04-20 18:18 25.32573 55.51717 125 ft 8 kts 32°
2026-04-20 18:19 25.32620 55.51753 125 ft 8 kts 46°
2026-04-20 18:19 25.32613 55.51810 125 ft 9 kts 123°
2026-04-20 18:19 25.32574 55.51875 125 ft 11 kts 123°
2026-04-20 18:19 25.32532 55.51947 125 ft 12 kts 123°
2026-04-20 18:20 25.32486 55.52027 125 ft 12 kts 122°
2026-04-20 18:20 25.32439 55.52107 125 ft 13 kts 122°
2026-04-20 18:20 25.32389 55.52193 125 ft 14 kts 122°
2026-04-20 18:20 25.32335 55.52286 125 ft 14 kts 122°
2026-04-20 18:21 25.32282 55.52380 125 ft 14 kts 122°
2026-04-20 18:21 25.32239 55.52469 125 ft 11 kts 93°
2026-04-20 18:21 25.32289 55.52519 125 ft 10 kts 30°
2026-04-20 18:21 25.32348 55.52560 125 ft 10 kts 33°
2026-04-20 18:22 25.32406 55.52601 125 ft 10 kts 32°
2026-04-20 18:22 25.32437 55.52623 125 ft 0 kts 32°
2026-04-20 18:23 25.32441 55.52626 125 ft 4 kts 32°
2026-04-20 18:23 25.32479 55.52654 125 ft 9 kts 37°
2026-04-20 18:24 25.32536 55.52693 125 ft 10 kts 10°
2026-04-20 18:24 25.32588 55.52654 125 ft 10 kts 303°
2026-04-20 18:24 25.32724 55.52415 125 ft 72 kts 303°
2026-04-20 18:24 25.33115 55.51735 126 ft 135 kts 302°
2026-04-20 18:25 25.33709 55.50699 139 ft 180 kts 302°
2026-04-20 18:25 25.34395 55.49498 627 ft 183 kts 303°
2026-04-20 18:25 25.35055 55.48307 1334 ft 181 kts 300°
2026-04-20 18:25 25.35658 55.47153 2082 ft 165 kts 301°
2026-04-20 18:26 25.36187 55.46116 2802 ft 142 kts 298°
2026-04-20 18:26 25.36618 55.45245 3404 ft 118 kts 300°
2026-04-20 18:26 25.37094 55.44499 3499 ft 126 kts 307°
2026-04-20 18:26 25.37663 55.43684 3614 ft 144 kts 306°
2026-04-20 18:27 25.38281 55.42697 3794 ft 167 kts 304°
2026-04-20 18:27 25.38971 55.41594 4126 ft 182 kts 310°
2026-04-20 18:27 25.39962 55.40772 4278 ft 185 kts 338°
2026-04-20 18:27 25.41292 55.40647 4437 ft 204 kts
2026-04-20 18:28 25.42632 55.41342 4653 ft 224 kts 30°
2026-04-20 18:28 25.43943 55.42386 4985 ft 238 kts 32°
2026-04-20 18:28 25.45314 55.43439 5519 ft 242 kts 29°
2026-04-20 18:28 25.46283 55.44114 5903 ft 244 kts 27°
2026-04-20 18:29 25.47746 55.45090 6496 ft 247 kts 27°
2026-04-20 18:29 25.49215 55.46092 7093 ft 250 kts 28°
2026-04-20 18:29 25.50675 55.47125 7660 ft 253 kts 28°
2026-04-20 18:29 25.52111 55.48280 8234 ft 260 kts 41°
2026-04-20 18:30 25.53057 55.50016 8777 ft 272 kts 72°
2026-04-20 18:30 25.53123 55.52152 9154 ft 289 kts 102°
2026-04-20 18:30 25.52208 55.54214 9463 ft 304 kts 129°
2026-04-20 18:30 25.50771 55.55947 9848 ft 314 kts 134°
2026-04-20 18:31 25.49275 55.57776 10414 ft 318 kts 129°
2026-04-20 18:31 25.47972 55.59731 10989 ft 321 kts 123°
2026-04-20 18:31 25.46764 55.61824 11548 ft 325 kts 124°
2026-04-20 18:31 25.45204 55.63679 11809 ft 337 kts 147°
2026-04-20 18:32 25.43031 55.64725 11994 ft 347 kts 172°
2026-04-20 18:32 25.40603 55.64832 12228 ft 356 kts 186°
2026-04-20 18:32 25.38093 55.64634 12534 ft 365 kts 188°
2026-04-20 18:32 25.35537 55.64417 13050 ft 369 kts 187°
2026-04-20 18:33 25.32967 55.64261 13605 ft 371 kts 186°
2026-04-20 18:33 25.30380 55.64174 14152 ft 373 kts 185°
2026-04-20 18:33 25.27769 55.64118 14663 ft 376 kts 184°
2026-04-20 18:33 25.25144 55.64056 15154 ft 378 kts 185°
2026-04-20 18:34 25.22500 55.63973 15628 ft 381 kts 185°
2026-04-20 18:34 25.19844 55.63878 16089 ft 384 kts 185°
2026-04-20 18:34 25.17165 55.63778 16531 ft 386 kts 185°
2026-04-20 18:34 25.14469 55.63680 16955 ft 389 kts 185°
2026-04-20 18:35 25.11752 55.63585 17361 ft 392 kts 185°
2026-04-20 18:35 25.09010 55.63491 17754 ft 395 kts 185°
2026-04-20 18:35 25.06250 55.63397 18147 ft 398 kts 185°
2026-04-20 18:35 25.03473 55.63302 18526 ft 401 kts 185°
2026-04-20 18:36 25.00675 55.63205 18886 ft 404 kts 185°
2026-04-20 18:36 24.97861 55.63107 19253 ft 406 kts 185°
2026-04-20 18:36 24.95027 55.63008 19633 ft 408 kts 185°
2026-04-20 18:36 24.92188 55.62910 20021 ft 409 kts 185°
2026-04-20 18:37 24.89376 55.62815 20394 ft 410 kts 185°
2026-04-20 18:37 24.86482 55.62715 20766 ft 411 kts 185°
2026-04-20 18:37 24.83618 55.62615 21085 ft 414 kts 185°
2026-04-20 18:37 24.80769 55.62516 21417 ft 415 kts 185°
2026-04-20 18:38 24.77878 55.62416 21758 ft 417 kts 185°
2026-04-20 18:38 24.74979 55.62318 22125 ft 417 kts 185°
2026-04-20 18:38 24.72077 55.62218 22460 ft 418 kts 185°
2026-04-20 18:38 24.69160 55.62117 22779 ft 419 kts 185°
2026-04-20 18:39 24.66237 55.62016 23044 ft 422 kts 185°
2026-04-20 18:39 24.63299 55.61914 23321 ft 424 kts 185°
2026-04-20 18:39 24.60350 55.61812 23613 ft 425 kts 184°
2026-04-20 18:39 24.57398 55.61711 24009 ft 423 kts 184°
2026-04-20 18:40 24.54451 55.61611 24348 ft 423 kts 184°
2026-04-20 18:40 24.51509 55.61510 24632 ft 425 kts 185°
2026-04-20 18:40 24.48540 55.61407 24807 ft 429 kts 185°
2026-04-20 18:40 24.45550 55.61304 25008 ft 432 kts 185°
2026-04-20 18:41 24.42535 55.61200 25226 ft 434 kts 185°
2026-04-20 18:41 24.39526 55.61098 25613 ft 431 kts 185°
2026-04-20 18:41 24.36524 55.60998 25953 ft 431 kts 186°
2026-04-20 18:41 24.33523 55.60897 26189 ft 432 kts 186°
2026-04-20 18:42 24.30497 55.60792 26268 ft 438 kts 186°
2026-04-20 18:42 24.27437 55.60669 26404 ft 441 kts 188°
2026-04-20 18:42 24.24415 55.60206 26609 ft 436 kts 197°
2026-04-20 18:42 24.21494 55.59399 26982 ft 432 kts 200°
2026-04-20 18:43 24.18597 55.58499 27239 ft 432 kts 201°
2026-04-20 18:43 24.15708 55.57570 27427 ft 434 kts 202°
2026-04-20 18:43 24.12787 55.56650 27534 ft 439 kts 201°